Location: ?ern� Novina
(50.6762°N, 14.8696°E)
Time: 17:56:12
(UTC+00:00)

COSMO-SKYMED 1 - Pass Details

Date: 03 March 2021
Orbit: 621 x 623 km, 97.9° (Epoch: 13 April)

Event Time Altitude Azimuth Distance (km) Brightness Sun altitude
Rises 17:41:45 0° 10° (N) 2,919 5.9 -9.7°
Reaches altitude 10° 17:43:59 10° 6° (N) 2,007 5.1 -10.1°
Maximum altitude 17:48:14 55° 289° (WNW) 757 3.4 -10.7°
Drops below altitude 10° 17:52:28 10° 213° (SSW) 1,991 5.6 -11.4°
Sets 17:54:40 0° 208° (SSW) 2,892 6.3 -11.7°
